[[{"header":{"parameterUnit":"m.s-1","parameterCategory":1,"la1":30.2991,"la2":30.254,"lo1":-89.0895,"lo2":-89.0444,"dy":0.0017,"dx":0.0017,"nx":28,"ny":28,"refTime":"2025-08-15T09:00:00:Z","depth":0,"parameterNumber":2,"parameterNumberName":"U-component_of_WINDS"},"data":[0,0,0,0,0,0,0,0,0,0,0,0,0,0,0,0,0,0,0,0,0,0,0,0,0,0,0,0,0,0,0,0,0,0,0,0,0,0,0,0,0,0,0,0,0,0,0,0,0,0,0,0,0,0,0,0,0,0,2.0075,2.0077,0,2.0205,2.0206,2.0208,2.0193,2.0191,2.0188,2.0186,2.0323,2.0329,2.0334,0,0,0,0,0,0,0,0,0,0,0,0,0,1.9816,1.9821,2.0075,2.0077,2.0078,2.0205,2.0207,2.0208,2.0193,2.019,2.0188,2.0185,2.0322,2.0328,2.0335,0,0,0,0,0,0,0,0,0,0,0,0,0,1.9936,1.9822,2.0075,2.0086,2.0088,2.0204,2.0207,2.0209,2.0194,2.019,2.0187,2.0184,2.0319,2.0328,2.0336,2.0451,0,0,2.0362,2.0365,0,0,0,0,0,0,0,0,1.9929,1.9945,2.0083,2.0085,2.0088,2.0179,2.0165,2.029,2.0194,2.0154,2.0186,2.0183,2.0278,2.029,2.0321,2.0457,2.0463,2.0362,2.0367,2.0371,2.0373,0,0,0,0,0,0,0,1.9921,1.9939,2.0127,2.0085,2.0088,2.0085,2.0098,2.0189,2.0232,2.0157,2.0156,2.0171,2.0279,2.0313,2.0324,2.0465,2.0362,2.037,2.0375,2.0378,2.0699,2.0703,0,0,0,0,0,0,1.9909,1.9933,2.0123,2.0131,1.9999,2.0092,2.0107,2.0153,2.0231,2.024,2.0174,2.017,2.03,2.0315,2.0329,2.0467,2.0371,2.0379,2.0384,2.0696,2.07,2.0704,0,0,0,0,0,0,1.9904,1.9926,2.0117,2.0031,2.0055,2.01,2.0152,2.0158,2.0191,2.0244,2.0252,2.0201,2.0299,2.0317,2.042,2.0472,2.0383,2.039,2.0692,2.0697,2.0702,2.0745,0,0,0,0,0,0,1.9896,1.9924,1.9968,2.0032,2.006,2.0205,2.0155,2.0162,2.0205,2.0202,2.0271,2.028,2.0297,2.0407,2.0428,2.0482,2.0397,2.0687,2.0694,2.07,2.074,2.0752,2.0762,0,0,0,0,0,1.9887,1.9977,1.9971,1.9994,2.0116,2.0209,2.0224,2.0242,2.021,2.0254,2.0288,2.0277,2.0463,2.0418,2.0441,2.0498,2.0684,2.0692,2.07,2.0735,2.0749,2.0761,0,0,0,0,0,0,1.992,1.9986,1.9979,2.0092,2.0145,2.0206,2.0263,2.0257,2.0321,2.0315,2.0335,2.0351,2.0454,2.0487,2.0436,2.0612,2.0569,2.0582,2.0588,2.0602,2.0613,2.0603,2.0404,0,0,0,0,0,1.994,2.0009,2.0063,2.0157,2.0184,2.0218,2.026,2.0268,2.0324,2.0346,2.0387,2.0443,2.0513,2.0559,2.0627,2.0744,2.0758,2.0794,2.0805,2.0814,2.0825,2.0888,2.0904,2.073,2.073,2.0729,0,0,1.9983,2.0027,2.007,2.0165,2.0206,2.0277,2.0237,2.0315,2.0368,2.0359,2.0457,2.0489,2.0552,2.0661,2.0712,2.0692,2.0876,2.0824,2.0831,2.0837,2.0897,2.0914,2.0928,2.0735,2.0734,2.0733,0,0,2.0097,2.0138,2.022,2.0261,2.0324,2.0346,2.0365,2.0427,2.0447,2.0545,2.0539,2.0603,2.0724,2.0768,2.0807,2.0934,2.0927,2.0956,2.1014,2.1075,2.1088,2.1101,2.1145,2.1161,2.0967,2.0967,2.0967,0,2.0143,2.0249,2.0263,2.0341,2.0382,2.0374,2.0457,2.0498,2.058,2.0609,2.0584,2.0734,2.0777,2.0895,2.0926,2.0958,2.0981,2.0949,2.1085,2.1098,2.1109,2.1152,2.1169,2.097,2.097,2.0969,2.0969,0,2.0302,2.0375,2.0434,2.0511,2.0559,2.0639,2.0665,2.0713,2.0716,2.0741,2.084,2.089,2.0967,2.0995,2.1001,2.1115,2.11,2.108,2.1037,2.1129,2.1169,2.1186,2.0974,2.0973,2.0972,2.0971,0,0,2.0443,2.0524,2.0545,2.0579,2.0645,2.0703,2.0782,2.0855,2.0894,2.0951,2.1017,2.1118,2.1099,2.1143,2.1153,2.1206,2.1302,2.118,2.1182,2.12,2.1429,2.1443,2.1462,2.1297,2.13,2.1303,2.1424,0,2.0563,2.0702,2.0715,2.0839,2.0907,2.0898,2.0967,2.1015,2.104,2.1101,2.1128,2.1199,2.117,2.1195,2.1248,2.1279,2.1348,2.1271,2.136,2.1363,2.1344,2.1483,2.15,2.1611,2.144,2.1442,2.1444,0,2.0723,2.0781,2.0911,2.0965,2.0994,2.1055,2.1122,2.118,2.1235,2.1248,2.1295,2.1298,2.1379,2.1332,2.1444,2.1391,2.1428,2.1448,2.1453,2.1463,2.1409,2.1496,2.1647,2.1664,2.1469,2.1467,2.1466,0,2.0811,2.0922,2.1014,2.1043,2.1109,2.1152,2.1182,2.1233,2.1275,2.1333,2.1361,2.1429,2.1466,2.1518,2.1539,2.1503,2.165,2.1605,2.1664,2.1663,2.1696,2.1693,2.1854,2.1719,2.1719,2.1719,2.1719,0,2.0945,2.1024,2.1054,2.111,2.1199,2.1213,2.1301,2.1329,2.1374,2.1435,2.1433,2.1491,2.1514,2.1576,2.1593,2.1682,2.17,2.1713,2.1717,2.1714,2.1712,2.1738,2.1731,2.1723,2.1722,2.1721,2.1721,0,2.106,2.1082,2.1181,2.1235,2.125,2.1313,2.1359,2.1413,2.1435,2.1513,2.1532,2.1568,2.164,2.1665,2.1754,2.1765,2.1869,2.1866,2.185,2.1851,2.1908,2.1902,2.2092,2.2117,2.1966,2.1967,2.1968,0,2.1143,2.1204,2.1262,2.1302,2.1333,2.1398,2.144,2.1456,2.15,2.1564,2.1611,2.1682,2.174,2.1856,2.189,2.1958,2.1956,2.2018,2.1967,2.1961,2.1957,2.1953,2.1958,2.2028,2.203,2.2031,2.2032,0,2.1289,2.1296,2.1356,2.1419,2.1468,2.1519,2.1569,2.1602,2.1625,2.1675,2.1747,2.1792,2.188,2.1951,2.2019,2.205,2.2045,2.2047,2.2064,2.2062,2.205,2.2056,2.1876,2.2043,2.2042,2.2041,2.2041,2.204,2.139,2.1443,2.1491,2.1557,2.1595,2.1641,2.1693,2.1721,2.1781,2.1853,2.1859,2.1937,2.1988,2.2078,2.2112,2.2174,2.2157,2.2182,2.2188,2.2194,2.2198,2.2039,2.2187,2.2186,2.2186,2.2186,2.2186,0,2.1535,2.1565,2.1625,2.1693,2.1744,2.1732,2.1785,2.1829,2.1898,2.1944,2.2,2.2083,2.215,2.2189,2.2256,2.2298,2.2297,2.2316,2.2313,2.232,2.221,2.2188,2.2315,2.2315,2.2315,2.2315,2.2315,2.2315,2.1617,2.1704,2.1717,2.1823,2.1852,2.1927,2.1958,2.2,2.2037,2.2128,2.2184,2.2207,2.225,2.2321,2.2382,2.2391,2.2417,2.2436,2.2444,2.2341,2.2328,2.2315,2.2295,2.2442,2.2442,2.2549,2.255,2.255]},{"header":{"parameterUnit":"m.s-1","parameterCategory":1,"la1":30.2991,"la2":30.254,"lo1":-89.0895,"lo2":-89.0444,"dy":0.0017,"dx":0.0017,"nx":28,"ny":28,"refTime":"2025-08-15T09:00:00:Z","depth":0,"parameterNumber":3,"parameterNumberName":"V-component_of_WINDS"},"data":[0,0,0,0,0,0,0,0,0,0,0,0,0,0,0,0,0,0,0,0,0,0,0,0,0,0,0,0,0,0,0,0,0,0,0,0,0,0,0,0,0,0,0,0,0,0,0,0,0,0,0,0,0,0,0,0,0,0,1.3428,1.3427,0,1.3314,1.3312,1.3311,1.3204,1.3202,1.3201,1.32,1.3079,1.3077,1.3075,0,0,0,0,0,0,0,0,0,0,0,0,0,1.3548,1.3547,1.3428,1.3426,1.3425,1.3314,1.3312,1.3311,1.3204,1.3202,1.3201,1.3199,1.3079,1.3077,1.3074,0,0,0,0,0,0,0,0,0,0,0,0,0,1.3471,1.3546,1.3428,1.3358,1.3351,1.3314,1.3312,1.331,1.3204,1.3202,1.32,1.3198,1.308,1.3077,1.3074,1.3096,0,0,1.3065,1.3064,0,0,0,0,0,0,0,0,1.3476,1.3467,1.337,1.3363,1.3355,1.3271,1.331,1.3238,1.3205,1.326,1.32,1.3197,1.3144,1.3136,1.3118,1.309,1.3085,1.3065,1.3063,1.3062,1.3061,0,0,0,0,0,0,0,1.3481,1.3471,1.3382,1.3369,1.3359,1.3331,1.3318,1.3296,1.3214,1.3255,1.3247,1.3235,1.3139,1.3122,1.3115,1.3083,1.3065,1.3062,1.306,1.3059,1.3064,1.3066,0,0,0,0,0,0,1.3498,1.3476,1.3386,1.3379,1.3412,1.3331,1.3316,1.33,1.3214,1.3199,1.3237,1.323,1.3128,1.3118,1.311,1.3128,1.3062,1.3059,1.3057,1.3062,1.3065,1.3067,0,0,0,0,0,0,1.3501,1.3491,1.3391,1.3425,1.3411,1.3331,1.3313,1.3299,1.3281,1.3201,1.3185,1.3234,1.3126,1.3114,1.31,1.3123,1.3058,1.3055,1.306,1.3063,1.3066,1.3166,0,0,0,0,0,0,1.3505,1.3493,1.3501,1.3427,1.3409,1.3384,1.3315,1.3298,1.3276,1.3267,1.3194,1.318,1.3123,1.3105,1.3097,1.3117,1.3052,1.3057,1.3061,1.3065,1.316,1.3172,1.3182,0,0,0,0,0,1.351,1.3534,1.3502,1.3492,1.3419,1.3386,1.3376,1.3311,1.3279,1.3286,1.3234,1.3182,1.3122,1.3104,1.3094,1.3114,1.3056,1.306,1.3064,1.3156,1.317,1.3182,0,0,0,0,0,0,1.3612,1.3523,1.3487,1.3488,1.3446,1.3368,1.3375,1.3329,1.3294,1.3286,1.3206,1.3191,1.3185,1.3148,1.313,1.313,1.3081,1.3084,1.3154,1.3167,1.3178,1.3186,1.305,0,0,0,0,0,1.3635,1.3617,1.3539,1.3548,1.3528,1.3456,1.3439,1.3393,1.3345,1.3327,1.3274,1.3228,1.3198,1.3181,1.3149,1.3155,1.3136,1.3163,1.3174,1.3183,1.3186,1.3185,1.3195,1.3081,1.3081,1.3081,0,0,1.3681,1.363,1.3624,1.3567,1.3529,1.3511,1.3441,1.3425,1.3411,1.3323,1.3307,1.3267,1.321,1.3206,1.3201,1.3175,1.3214,1.3189,1.3197,1.3195,1.319,1.3201,1.3211,1.3084,1.3083,1.3083,0,0,1.3757,1.3718,1.3719,1.3683,1.3626,1.3577,1.3578,1.3507,1.3478,1.346,1.3394,1.3374,1.3326,1.3288,1.3262,1.3323,1.3273,1.3314,1.3371,1.337,1.3379,1.3387,1.3407,1.3416,1.3318,1.3318,1.3318,0,1.3822,1.3793,1.3726,1.3714,1.369,1.3612,1.3612,1.3579,1.3515,1.3499,1.3471,1.3407,1.3364,1.3349,1.3363,1.3346,1.3342,1.3322,1.3384,1.3391,1.3397,1.3415,1.3423,1.3323,1.3323,1.3322,1.3322,0,1.3875,1.3857,1.3865,1.3806,1.3783,1.3777,1.3707,1.3691,1.3647,1.3601,1.3583,1.3528,1.3484,1.3476,1.3433,1.3455,1.344,1.3399,1.3349,1.3414,1.343,1.3437,1.3331,1.3329,1.3327,1.3326,0,0,1.4012,1.3916,1.392,1.3892,1.3823,1.3806,1.3796,1.3754,1.3742,1.37,1.3688,1.3648,1.361,1.3581,1.3532,1.3532,1.3582,1.349,1.3487,1.3508,1.36,1.3631,1.3641,1.3548,1.3549,1.355,1.3605,0,1.4075,1.4054,1.3993,1.399,1.3971,1.3896,1.3887,1.3843,1.3799,1.3775,1.3726,1.3699,1.3651,1.3633,1.3629,1.3577,1.3599,1.3572,1.3535,1.3535,1.3551,1.3649,1.3682,1.3736,1.3611,1.3612,1.3612,0,1.4146,1.4111,1.4107,1.4038,1.4028,1.4021,1.3976,1.3955,1.3903,1.3871,1.3839,1.3785,1.3768,1.3722,1.3697,1.368,1.3661,1.3633,1.3633,1.3627,1.3577,1.3644,1.3752,1.376,1.3622,1.3621,1.362,0,1.4246,1.4196,1.4187,1.4165,1.4085,1.4082,1.4048,1.3994,1.3972,1.3933,1.3918,1.3877,1.3854,1.3822,1.3758,1.3731,1.3739,1.3688,1.3711,1.3712,1.3715,1.3716,1.382,1.3705,1.3705,1.3705,1.3705,0,1.4322,1.4322,1.423,1.4224,1.4221,1.415,1.4149,1.4107,1.406,1.4043,1.3975,1.3961,1.3877,1.3852,1.3802,1.3788,1.3778,1.375,1.3737,1.3756,1.3759,1.3742,1.3736,1.3707,1.3706,1.3706,1.3706,0,1.4432,1.4371,1.4355,1.4281,1.4263,1.4264,1.4199,1.419,1.4142,1.4122,1.4113,1.4038,1.4005,1.3938,1.3886,1.3852,1.3849,1.3826,1.3868,1.3859,1.3885,1.3883,1.3981,1.399,1.3871,1.3872,1.3873,0,1.4485,1.4483,1.4409,1.4394,1.4364,1.434,1.4318,1.4247,1.4226,1.4166,1.4163,1.4126,1.4092,1.4043,1.3982,1.3942,1.3916,1.3953,1.3909,1.3929,1.3915,1.3916,1.3915,1.3963,1.3965,1.3966,1.3967,0,1.4584,1.4554,1.4525,1.4486,1.4462,1.4427,1.4388,1.4379,1.4298,1.4278,1.4245,1.4219,1.4166,1.4129,1.408,1.4042,1.3991,1.3982,1.3984,1.4004,1.4028,1.4014,1.3894,1.3979,1.3978,1.3977,1.3977,1.3976,1.4666,1.4661,1.4608,1.4578,1.4542,1.4507,1.4495,1.4446,1.4417,1.4371,1.433,1.43,1.4246,1.4175,1.4141,1.4115,1.4089,1.4094,1.4095,1.4097,1.4105,1.4033,1.4105,1.4105,1.4105,1.4104,1.4104,0,1.4761,1.4724,1.4697,1.4646,1.4622,1.4577,1.4532,1.4514,1.4489,1.4444,1.4412,1.4373,1.4337,1.4273,1.4231,1.4222,1.4197,1.4213,1.4213,1.4205,1.413,1.4132,1.4234,1.4234,1.4234,1.4234,1.4234,1.4234,1.4808,1.4797,1.476,1.4729,1.4691,1.4662,1.464,1.4607,1.4571,1.4531,1.4501,1.446,1.4407,1.436,1.4324,1.4306,1.4293,1.4316,1.4291,1.4222,1.421,1.4198,1.4199,1.4315,1.4315,1.4367,1.4368,1.4368]}]]